Glendale Luke AFB, AZ

11:44 PM MST on November 12, 2019 (GMT -0700)
Luke Air Force Base

Weather History for KLUF - September, 2019

Change the Weather History Date:

Monday, September 30, 2019

  Actual Average Record
Temperature  
Mean Temperature 74 °F -  
Max Temperature 86 °F 97 °F 108 °F (1980)
Min Temperature 63 °F 62 °F 47 °F (1934)
Cooling Degree Days 10    
Growing Degree Days 24 (Base 50)    
Moisture  
Dew Point 42 °F    
Average Humidity 32    
Maximum Humidity 58    
Minimum Humidity 16    
Precipitation  
Precipitation 0.00 in - - ()
Sea Level Pressure  
Sea Level Pressure 29.70 in    
Wind  
Wind Speed 3 mph (WSW)    
Max Wind Speed 12 mph    
Max Gust Speed -    
Visibility 10 miles    
Events      
Averages and records for this station are not official NWS values.
T = Trace of Precipitation, MM = Missing Value Source: NWS Daily Summary

Daily Weather History Graph

Daily Weather History Graph

Search for Another Location

Airport or City:

Astronomy

Sep. 30, 2019 Rise Set
Actual Time 6:23 AM MST 6:15 PM MST
Civil Twilight 5:58 AM MST 6:40 PM MST
Nautical Twilight 5:29 AM MST 7:09 PM MST
Astronomical Twilight 5:00 AM MST 7:37 PM MST
Moon 8:27 AM MST (9/30) 7:59 PM MST (9/30)
Length of Visible Light 12h 41m
Length of Day
11h 52m
Waxing Crescent, 6% of the Moon is Illuminated
Sep 30
Waxing Crescent
Oct 5
First Quarter
Oct 13
Full
Oct 21
Last Quarter
Oct 27
New

Hourly Weather History & Observations

Time (MST) Temp. Dew Point Humidity Pressure Visibility Wind Dir Wind Speed Gust Speed Precip Events Conditions
12:58 AM 71.6 °F 43.2 °F 36% 29.71 in 10.0 mi North 3.5 mph - N/A   Clear
1:58 AM 70.0 °F 47.7 °F 45% 29.72 in 10.0 mi Calm Calm - N/A   Clear
2:58 AM 68.2 °F 49.8 °F 52% 29.73 in 10.0 mi SW 3.5 mph - N/A   Clear
3:58 AM 67.1 °F 47.3 °F 49% 29.73 in 10.0 mi Calm Calm - N/A   Clear
4:58 AM 65.3 °F 48.7 °F 55% 29.74 in 10.0 mi North 6.9 mph - N/A   Clear
5:58 AM 63.0 °F 48.0 °F 58% 29.75 in 10.0 mi Calm Calm - N/A   Clear
6:58 AM 64.0 °F 48.6 °F 57% 29.76 in 10.0 mi Calm Calm - N/A   Clear
7:58 AM 70.0 °F 47.7 °F 45% 29.77 in 10.0 mi Calm Calm - N/A   Clear
8:58 AM 75.7 °F 44.6 °F 33% 29.76 in 10.0 mi North 3.5 mph - N/A   Clear
9:58 AM 78.3 °F 44.2 °F 30% 29.77 in 10.0 mi ENE 3.5 mph - N/A   Clear
10:58 AM 81.3 °F 41.0 °F 24% 29.75 in 10.0 mi Calm Calm - N/A   Clear
11:58 AM 84.6 °F 39.0 °F 20% 29.74 in 10.0 mi Calm Calm - N/A   Clear
12:58 PM 85.3 °F 44.4 °F 24% 29.71 in 10.0 mi South 4.6 mph - N/A   Clear
1:58 PM 86.4 °F 43.0 °F 22% 29.68 in 10.0 mi WNW 4.6 mph - N/A   Clear
2:58 PM 86.5 °F 41.9 °F 21% 29.67 in 10.0 mi WSW 4.6 mph - N/A   Clear
3:58 PM 86.9 °F 41.0 °F 20% 29.66 in 10.0 mi WSW 11.5 mph - N/A   Clear
4:58 PM 86.5 °F 39.4 °F 19% 29.64 in 10.0 mi West 8.1 mph - N/A   Clear
5:58 PM 85.1 °F 39.6 °F 20% 29.63 in 10.0 mi WSW 6.9 mph - N/A   Clear
6:58 PM 81.0 °F 42.8 °F 26% 29.64 in 10.0 mi West 4.6 mph - N/A   Clear
7:58 PM 77.4 °F 44.4 °F 31% 29.65 in 10.0 mi West 4.6 mph - N/A   Clear
8:58 PM 75.9 °F 44.8 °F 33% 29.66 in 10.0 mi SW 5.8 mph - N/A   Clear
9:58 PM 77.2 °F 27.5 °F 16% 29.67 in 10.0 mi SSW 8.1 mph - N/A   Clear
10:58 PM 75.0 °F 28.6 °F 18% 29.68 in 10.0 mi SW 5.8 mph - N/A   Clear
11:58 PM 73.2 °F 28.4 °F 19% 29.68 in 10.0 mi SSW 6.9 mph - N/A   Clear